Retour au catalogue

STARLINK-31889

ActifCommunicationsVLEO
NORAD 59847·PAYLOAD·🇺🇸 United States

Lancé May 23, 2024 depuis Cape Canaveral Space Force Station

Loading…

Prochains Passages (prochaines 24 heures)

TLE

FraisSource: CelesTrak SupGP

Époque: Sep 15, 2026, 02:59 UTC

1 59847C 24097N   26258.12479167  .00005607  00000+0  20308-3 0  2586
2 59847  43.0022 284.9546 0001301 266.2353  89.2167 15.27578331    12

Suivez STARLINK-31889 en temps réel avec AllMySat

Download on the App Store